Probability
0 0 0 0 0 0 0 0 0 0 0 0 0 0 0 0 0 0 0 0 0 0 0 0 0 0 0 0 0 0 0 0 0 0 0 0 0 0 0 0 0 0 0 0 0 0 0 0 0
0 0 0 0 0 0 0 0 0 0 0 0 0 0 0 0 0 0 0 0 0 0 0 0 0 0 0 0 0 0 0 0 0 0 0 0 0 0 0 0 0 0 0 0 0 0 0 0 0
0 0 0 0 0 0 0 0 0 0 0 0 0 0 0 0 0 0 0 0 0 0 0 0 0 0 0 0 0 0 0 0 0 0 0 0 0 0 0 0 0 0 0 0 0 0 0 0 0
0 0 0 0 0 0 0 0 0 0 0 0 0 0 0 0 0 0 0 0 0 0 0 0 0 0 0 0 0 0 0 0 0 0 0 0 0 0 0 0 0 0 0 0 0 0 0 0 0
0 0 0 0 0 0 0 0 0 0 0 0 0 0 0 0 0 0 0 0 0 0 0 0 0 0 0 0 0 0 0 0 0 0 0 0 0 0 0 0 0 0 0 0 0 0 0 0 0
0 0 0 0 0 0 0 0 0 0 0 0 0 0 0 0 0 0 0 0 0 0 0 0 0 0 0 0 0 0 0 0 0 0 0 0 0 0 0 0 0 0 0 0 0 0 0 0 0
0 0 0 0 0 0 0 0 0 0 0 0 0 0 0 0 0 0 0 0 0 0 0 0 0 0 0 0 0 0 0 0 0 0 0 0 0 0 0 0 0 0 0 0 0 0 0 0 0
0 0 0 0 0 0 0 0 0 0 0 0 0 0 0 0 0 0 0 0 0 0 0 0 0 0 0 0 0 0 0 0 0 0 0 0 0 0 0 0 0 0 0 0 0 0 0 0 0
0 0 0 0 0 0 0 0 0 0 0 0 0 0 0 0 0 0 0 0 0 0 0 0 0 0 0 0 0 0 0 0 0 0 0 0 0 0 0 0 0 0 0 0 0 0 0 0 0
0 0 0 0 0 0 0 0 0 0 0 0 0 0 0 0 0 0 0 0 0 0 0 0 0 0 0 0 0 0 0 0 0 0 0 0 0 0 0 0 0 0 0 0 0 0 0 0 0
0 0 0 0 0 0 0 0 0 0 0 0 0 0 0 0 0 0 0 0 0 0 0 0 0 0 0 0 0 0 0 0 0 0 0 0 0 0 0 0 0 0 0 0 0 0 0 0 0
0 0 0 0 0 0 0 0 0 0 0 0 0 0 0 0 0 0 0 0 0 0 0 0 0 0 0 0 0 0 0 0 0 0 0 0 0 0 0 0 0 0 0 0 0 0 0 0 0
0 0 0 0 0 0 0 0 0 0 0 0 0 0 0 0 0 0 0 0 0 0 0 0 0 0 0 0 0 0 0 0 0 0 0 0 0 0 0 0 0 0 0 0 0 0 0 0 0
0 0 0 0 0 0 0 0 0 0 0 0 0 0 0 0 0 0 0 0 0 0 0 0 0 0 0 0 0 0 0 0 0 0 0 0 0 0 0 0 0 0 0 0 0 0 0 0 0
0 0 0 0 0 0 0 0 0 0 0 0 0 0 0 0 0 0 0 0 0 0 0 0 0 0 0 0 0 0 0 0 0 0 0 0 0 0 0 0 0 0 0 0 0 0 0 0 0
0 0 0 0 0 0 0 0 0 0 0 0 0 0 0 0 0 0 0 0 0 0 0 0 0 0 0 0 0 0 0 0 0 0 0 0 0 0 0 0 0 0 0 0 0 0 0 0 0
0 0 0 0 0 0 0 0 0 0 0 0 0 0 0 0 0 0 0 0 0 0 0 0 0 0 0 0 0 0 0 0 0 0 0 0 0 0 0 0 0 0 0 0 0 0 0 0 0
0 0 0 0 0 0 0 0 0 0 0 0 0 0 0 0 0 0 0 0 0 0 0 0 0 0 0 0 0 0 0 0 0 0 0 0 0 0 0 0 0 0 0 0 0 0 0 0 0
0 0 0 0 0 0 0 0 0 0 0 0 0 0 0 0 0 0 0 0 0 0 0 0 0 0 0 0 0 0 0 0 0 0 0 0 0 0 0 0 0 0 0 0 0 0 0 0 0
0 0 0 0 0 0 0 0 0 0 0 0 0 0 0 0 0 0 0 0 0 0 0 0 0 0 0 0 0 0 0 0 0 0 0 0 0 0 0 0 0 0 0 0 0 0 0 0 0
0 0 0 0 0 0 0 0 0 0 0 0 0 0 0 0 0 0 0 0 0 0 0 0 0 0 0 0 0 0 0 0 0 0 0 0 0 0 0 0 0 0 0 0 0 0 0 0 0
0 0 0 0 0 0 0 0 0 0 0 0 0 0 0 0 0 0 0 0 0 0 0 0 0 0 0 0 0 0 0 0 0 0 0 0 0 0 0 0 0 0 0 0 0 0 0 0 0
0 0 0 0 0 0 0 0 0 0 0 0 0 0 0 0 0 0 0 0 0 0 0 0 0 0 0 0 0 0 0 0 0 0 0 0 0 0 0 0 0 0 0 0 0 0 0 0 0
0 0 0 0 0 0 0 0 0 0 0 0 0 0 0 0 0 0 0 0 0 0 0 0 0 0 0 0 0 0 0 0 0 0 0 0 0 0 0 0 0 0 0 0 0 0 0 0 0
0 0 0 0 0 0 0 0 0 0 0 0 0 0 0 0 0 0 0 0 0 0 0 0 0 0 0 0 0 0 0 0 0 0 0 0 0 0 0 0 0 0 0 0 0 0 0 0 0
0 0 0 0 0 0 0 0 0 0 0 0 0 0 0 0 0 0 0 0 0 0 0 0 0 0 0 0 0 0 0 0 0 0 0 0 0 0 0 0 0 0 0 0 0 0 0 0 0
0 0 0 0 0 0 0 0 0 0 0 0 0 0 0 0 0 0 0 0 0 0 0 0 0 0 0 0 0 0 0 0 0 0 0 0 0 0 0 0 0 0 0 0 0 0 0 0 0
0 0 0 0 0 0 0 0 0 0 0 0 0 0 0 0 0 0 0 0 0 0 0 0 0 0 0 0 0 0 0 0 0 0 0 0 0 0 0 0 0 0 0 0 0 0 0 0 0
0 0 0 0 0 0 0 0 0 0 0 0 0 0 0 0 0 0 0 0 0 0 0 0 0 0 0 0 0 0 0 0 0 0 0 0 0 0 0 0 0 0 0 0 0 0 0 0 0
0 0 0 0 0 0 0 0 0 0 0 0 0 0 0 0 0 0 0 0 0 0 0 0 0 0 0 0 0 0 0 0 0 0 0 0 0 0 0 0 0 0 0 0 0 0 0 0 0
Wind_Speed
7 4 3 5 9 7 2 1 3 3 1 1 2 5 7 4 3 3 1 1 4 4 5 8 11 11 12 11 11 12 13 14 15 15 16 16 16 16 16 16 16 16 16 17 17 18 18 19 19
3 3 6 7 7 3 2 2 3 4 5 4 3 4 4 2 1 2 1 1 5 6 5 6 10 11 11 11 11 11 13 14 15 15 15 15 15 16 16 16 16 16 17 17 18 18 19 19 19
1 5 6 6 5 6 5 3 4 3 4 3 3 2 3 3 1 0 1 2 5 5 5 6 9 11 11 11 11 11 12 13 14 14 14 15 15 15 16 16 16 17 17 18 18 19 19 19 19
4 6 7 7 2 4 4 4 5 6 2 2 4 3 0 0 1 2 2 3 6 5 5 6 9 10 11 11 11 11 12 12 13 14 14 14 15 15 16 16 17 17 17 18 19 19 19 19 19
5 6 7 4 1 1 2 3 6 5 5 2 4 5 1 1 1 1 1 4 6 5 4 5 8 9 10 10 10 10 11 12 12 13 13 13 14 14 15 16 17 17 18 18 19 19 19 20 20
6 6 6 2 1 1 1 4 5 3 4 4 5 6 3 1 1 1 3 4 5 5 4 4 6 7 8 9 9 9 10 11 12 13 13 13 13 13 14 15 16 17 18 18 19 19 20 20 21
6 6 5 6 2 1 2 5 6 5 5 5 7 6 2 2 1 2 4 5 5 4 4 3 2 4 6 7 8 8 9 10 10 11 12 11 11 12 12 13 15 16 17 18 19 19 20 21 21
6 7 5 4 5 4 2 4 3 5 5 2 4 6 6 6 5 4 5 5 5 4 4 3 2 2 2 3 7 8 9 10 10 11 11 10 10 10 10 10 13 15 16 17 18 19 20 21 21
4 7 4 7 8 5 4 4 2 2 5 1 2 3 2 6 7 5 3 2 3 3 3 3 2 2 1 1 3 6 7 8 9 9 11 9 5 6 6 9 12 14 15 17 18 18 19 19 19
6 5 8 6 7 4 5 5 7 4 2 2 3 2 2 5 7 7 6 6 5 3 1 2 2 1 1 1 2 2 3 4 5 5 6 5 5 5 6 10 12 13 14 15 17 18 16 13 8
4 6 4 2 3 3 5 4 6 8 5 9 9 9 8 6 7 8 7 6 5 2 0 1 2 1 0 1 2 2 2 3 4 5 6 5 5 5 4 4 5 6 8 7 10 10 7 7 7
4 1 2 1 1 4 5 6 5 7 7 2 4 7 8 10 11 10 9 6 3 3 2 1 2 2 1 1 2 3 2 3 3 4 6 6 4 5 4 3 4 4 3 5 5 6 8 9 9
2 2 1 1 2 2 5 3 4 6 1 2 3 8 10 10 8 5 5 5 4 4 3 2 2 2 2 2 2 3 3 3 4 4 5 6 6 6 5 4 4 4 4 5 6 6 8 9 9
2 2 1 1 0 1 3 1 2 6 3 2 4 8 8 9 8 6 6 7 6 5 4 2 2 3 3 3 3 3 3 3 3 3 5 6 6 6 6 6 5 5 4 5 6 7 8 8 8
2 2 2 1 1 0 2 4 8 3 4 4 6 7 7 8 7 9 8 7 7 5 4 3 3 3 4 4 4 3 3 3 3 3 4 6 6 8 7 6 5 5 5 7 7 8 8 9 9
4 4 2 4 1 1 4 9 8 3 6 8 8 8 8 9 9 9 8 7 6 5 5 4 3 4 5 5 5 4 4 4 3 3 4 6 7 8 8 7 6 5 5 6 7 7 9 8 8
3 1 3 5 2 2 4 9 6 2 5 9 9 9 9 9 11 10 9 8 7 7 6 5 5 5 6 6 5 5 4 4 3 3 4 6 7 8 8 7 6 6 6 6 7 6 7 9 9
6 4 4 5 2 3 5 11 10 4 6 10 9 9 10 14 18 10 9 8 7 7 7 6 6 7 7 6 5 5 5 4 3 3 4 7 7 8 8 7 8 7 7 6 8 10 7 7 8
5 5 5 6 3 4 8 12 14 6 7 11 12 12 14 19 13 8 10 9 8 8 8 9 9 9 8 5 4 5 4 3 3 3 4 6 7 8 8 8 7 6 7 8 10 11 10 6 5
4 4 5 5 2 4 7 12 12 9 10 12 14 15 16 15 10 10 11 11 12 12 11 11 11 11 10 5 4 4 4 4 3 3 4 5 6 7 8 9 8 7 9 9 9 9 6 3 2
5 7 7 6 3 3 4 11 8 9 7 8 11 13 13 17 17 13 14 15 14 15 15 13 12 12 10 8 6 6 5 4 3 3 3 3 5 5 7 8 8 7 8 9 8 8 8 6 2
8 9 8 4 2 6 2 8 9 7 7 10 14 14 18 18 16 12 14 15 18 17 13 12 12 12 11 11 10 11 8 6 6 5 4 5 5 6 7 7 8 7 7 8 7 5 5 7 5
7 3 5 4 4 5 3 5 12 4 9 12 15 17 18 17 14 13 15 16 13 12 12 12 12 13 12 12 12 11 8 6 6 7 8 6 5 5 6 7 7 8 7 7 7 7 6 4 5
7 7 6 5 3 8 8 9 13 9 12 11 12 14 15 12 9 10 9 9 10 11 12 13 14 14 14 13 13 11 11 12 13 11 10 7 5 4 5 6 6 7 7 7 7 7 8 6 6
5 6 2 3 2 12 5 9 16 11 12 12 13 13 10 5 5 7 9 11 13 15 16 15 16 15 14 14 14 11 12 15 17 16 13 11 7 4 6 6 6 6 7 7 8 8 7 7 8
9 12 11 9 8 8 4 13 13 8 8 9 11 12 9 7 6 8 10 12 13 15 16 16 17 15 15 15 13 11 12 11 10 13 13 12 9 7 8 7 7 7 8 8 7 7 6 6 7
8 8 6 5 2 6 10 11 12 7 10 13 14 11 13 10 8 8 8 10 12 14 16 17 16 14 14 14 13 12 12 11 10 11 9 9 8 8 9 8 9 8 8 8 8 7 7 7 6
7 9 6 7 7 9 11 9 9 9 15 14 10 11 13 8 6 7 7 9 10 10 11 12 13 13 12 13 13 11 12 11 11 11 11 10 10 10 11 10 10 9 8 8 7 7 7 7 6
8 7 7 6 6 8 8 14 11 13 12 11 12 11 10 7 6 6 7 7 8 8 10 12 12 11 12 13 12 12 12 11 12 12 12 12 11 12 13 12 11 11 9 8 8 7 8 8 7
8 11 11 9 8 6 6 18 5 9 8 8 9 8 5 4 4 5 6 7 8 10 11 13 13 13 13 13 13 13 13 13 14 13 13 12 12 12 12 12 11 11 10 9 10 10 9 9 9
Wind_Direction
332 350 57 54 54 51 95 201 173 157 129 64 103 127 140 141 154 159 173 143 152 142 136 133 128 126 123 118 113 109 107 103 98 92 85 80 75 72 70 68 68 69 69 71 72 73 76 80 79
330 18 52 57 81 87 264 234 181 185 158 125 79 94 106 98 52 97 45 129 141 134 125 128 130 128 125 120 113 111 111 107 103 97 90 84 78 74 70 69 68 69 70 72 74 76 80 81 79
42 49 75 71 100 165 197 206 171 115 131 114 95 71 125 137 353 15 341 148 123 116 116 130 134 131 128 124 119 115 116 113 109 103 96 89 83 77 72 71 71 71 72 74 76 78 81 81 79
70 47 54 70 106 202 202 181 157 125 128 92 119 107 61 4 269 288 311 134 120 114 118 135 134 136 134 131 128 124 122 120 116 109 102 95 88 81 76 74 74 74 75 76 76 78 79 78 75
58 73 59 51 337 256 222 169 164 148 149 127 129 139 197 324 322 336 104 127 125 119 121 137 135 139 141 139 136 133 129 127 124 117 111 104 96 88 82 78 77 76 77 77 77 77 76 73 71
58 67 85 147 276 343 169 162 166 131 132 137 134 144 201 316 11 44 98 108 113 122 120 126 139 142 145 147 144 141 138 135 132 127 121 114 105 96 88 83 79 78 77 77 77 78 77 75 72
102 95 140 171 179 269 191 148 164 147 152 178 155 139 234 247 175 90 91 92 87 90 95 91 114 139 151 155 152 149 147 142 138 135 128 120 112 102 92 86 83 80 78 78 78 78 79 77 75
113 99 103 166 176 226 175 143 156 157 156 132 153 158 211 208 144 111 90 82 82 74 72 69 68 98 130 152 165 160 155 151 146 140 133 126 116 105 95 87 86 83 81 79 79 79 78 78 76
83 81 162 199 187 220 177 140 98 57 114 141 237 229 233 136 132 131 116 102 102 83 58 43 46 47 74 143 166 167 162 158 150 144 140 130 116 107 96 90 88 86 84 83 82 81 80 78 75
79 132 208 201 190 198 181 172 165 136 138 227 248 227 122 137 155 166 172 176 173 163 83 33 23 10 8 103 132 139 140 145 139 138 141 130 121 112 106 94 88 85 84 85 84 83 79 76 69
98 167 198 183 190 184 173 175 164 141 198 217 208 194 166 170 179 187 190 186 186 173 182 355 338 322 280 161 143 134 132 132 136 141 141 132 122 115 105 98 87 81 79 78 80 77 73 74 75
100 145 172 185 177 166 176 157 180 196 210 283 247 167 172 181 192 195 194 193 187 199 229 291 306 277 238 189 158 150 146 142 144 150 149 143 136 128 119 106 100 90 87 90 84 86 82 79 77
103 136 108 76 84 123 132 165 212 233 255 7 130 152 185 196 201 202 197 193 198 215 232 263 283 244 212 170 154 145 144 146 146 148 151 150 145 139 127 115 104 98 97 99 97 93 90 86 82
126 111 49 344 4 127 155 211 260 250 132 126 168 188 202 206 202 197 201 204 207 216 227 248 258 228 192 164 147 136 131 134 133 138 142 144 143 139 130 120 111 104 101 100 100 99 95 89 88
88 70 345 292 214 227 126 272 245 233 148 194 215 220 227 228 215 213 208 204 203 207 212 221 221 194 168 148 134 125 122 125 125 124 125 130 133 133 128 123 115 111 108 106 103 98 96 95 90
62 50 299 294 208 163 158 255 268 161 177 219 228 234 241 241 232 228 214 206 200 197 200 205 185 162 148 135 126 119 114 111 111 114 119 121 124 128 125 123 119 116 111 110 110 109 104 98 93
27 192 240 292 204 159 189 247 273 161 207 239 240 240 246 256 250 232 215 205 197 195 191 188 171 155 138 124 114 106 101 96 100 107 119 122 122 125 125 122 122 119 111 108 115 108 112 110 103
214 208 225 253 234 173 221 252 267 213 215 245 250 247 246 248 246 225 208 202 196 193 190 182 168 156 140 126 114 103 91 82 78 91 114 124 125 126 123 121 124 124 119 113 116 112 102 108 112
163 176 218 246 232 192 237 255 266 245 221 246 248 243 242 246 246 211 200 193 191 192 190 185 176 168 158 149 146 138 124 105 87 83 99 119 128 130 129 128 127 128 126 129 129 121 111 103 113
152 189 241 275 244 206 260 267 261 245 223 226 233 238 239 244 241 214 199 195 196 195 193 188 185 178 178 168 144 130 123 111 96 92 89 104 122 131 134 135 134 131 128 128 133 131 118 100 55
204 204 218 233 331 276 291 293 267 264 236 245 239 239 240 237 239 221 204 203 199 199 195 192 187 182 179 161 135 115 103 104 113 116 105 97 116 123 128 132 132 134 135 141 143 142 133 132 72
230 218 206 207 247 279 209 281 282 260 264 251 248 243 243 242 238 223 204 204 205 202 190 188 183 182 178 168 167 165 163 162 168 152 137 121 116 124 126 129 129 128 130 135 138 130 126 130 133
203 148 159 172 195 271 223 241 272 271 264 254 246 244 243 241 231 223 210 208 203 189 185 185 181 183 180 179 179 180 166 143 137 135 136 130 122 123 128 131 129 128 127 129 126 121 119 120 133
132 86 72 58 93 264 206 201 263 217 224 240 242 243 245 245 232 223 204 187 185 181 184 185 185 186 182 182 183 186 167 153 150 153 152 147 138 130 137 133 129 127 128 128 126 120 117 116 118
139 112 49 309 262 250 180 211 250 225 222 225 239 249 252 248 229 211 191 189 188 187 189 189 188 188 184 184 186 186 174 168 166 163 163 159 157 159 163 147 138 132 128 125 122 119 119 123 123
188 164 178 204 226 267 204 232 251 245 257 264 262 265 278 263 232 217 203 196 194 191 191 192 192 188 183 185 186 181 176 176 174 170 166 167 167 159 160 150 139 134 131 128 123 120 121 123 123
170 217 177 146 231 280 259 262 291 266 266 256 254 261 265 261 236 222 206 198 195 193 194 194 192 187 185 185 181 179 179 180 175 169 164 162 155 151 154 149 143 140 137 135 131 131 132 130 126
161 152 129 165 201 249 267 250 242 225 230 237 243 247 254 255 234 219 206 198 194 193 191 191 191 188 181 181 181 181 181 178 171 167 167 163 158 153 155 153 150 147 143 141 135 136 140 133 130
153 174 179 174 182 190 267 265 211 211 219 223 232 236 244 251 235 219 205 191 183 179 183 189 189 184 182 182 180 176 177 174 171 174 173 168 162 159 162 161 158 156 154 151 149 152 152 144 140
198 193 170 179 218 206 239 267 194 214 230 226 238 244 244 241 228 212 194 178 180 185 188 192 193 191 186 181 179 178 177 176 177 178 175 170 167 166 165 162 162 162 162 163 163 162 162 157 158